Stations météo

réclame
Mon MeteoGroup
Bergamo/Orio al Serio, Italie (16076): Température de l'air & dewpoint: 18.10.2017 09:00:00 - 24.10.2017 09:00:00 (CEST)Bergamo/Orio al Serio, Italie (16076): Vitesse du vent: 18.10.2017 09:00:00 - 24.10.2017 09:00:00 (CEST)Bergamo/Orio al Serio, Italie (16076): Direction du vent: 18.10.2017 09:00:00 - 24.10.2017 09:00:00 (CEST)Bergamo/Orio al Serio, Italie (16076): reduced air pressure: 18.10.2017 09:00:00 - 24.10.2017 09:00:00 (CEST)Bergamo/Orio al Serio, Italie (16076): visibility: 18.10.2017 09:00:00 - 24.10.2017 09:00:00 (CEST)
Date & Time tt [°C] td [°C] ff [km/h] ff [knt] dd ppp [hPa] vv [km]
24.10.2017 09:00:00 9,0 2,0 8 4 NNE - 10
24.10.2017 08:00:00 7,3 0,5 5 3 N 1020,9 10
24.10.2017 07:00:00 7,0 0,0 8 4 - - 10
24.10.2017 06:00:00 9,0 -1,0 4 2 - - 10
24.10.2017 05:00:00 9,4 0,0 18 10 N 1019,0 10
24.10.2017 04:00:00 9,0 1,0 13 7 N - 10
24.10.2017 03:00:00 8,0 1,0 15 8 N - 10
24.10.2017 02:00:00 10,7 -0,3 15 8 N 1018,3 10
24.10.2017 01:00:00 9,0 1,0 13 7 N - 10
24.10.2017 00:00:00 10,0 1,0 16 9 N - 10
23.10.2017 23:00:00 13,4 -2,0 21 11 NW 1016,9 10
23.10.2017 22:00:00 11,0 2,0 15 8 N - 10
23.10.2017 21:00:00 13,0 0,0 9 5 NNE - 10
23.10.2017 20:00:00 12,6 0,4 9 5 ENE 1015,5 10
23.10.2017 19:00:00 16,0 4,0 5 3 N - 10
23.10.2017 18:00:00 19,0 2,0 5 3 ENE - 10
23.10.2017 17:00:00 19,2 3,9 13 7 ESE 1012,8 10
23.10.2017 16:00:00 20,0 1,0 11 6 SE - 10
23.10.2017 15:00:00 21,0 1,0 4 2 - - 10
23.10.2017 14:00:00 19,7 0,9 8 4 SE 1012,3 10
23.10.2017 13:00:00 18,0 2,0 8 4 ESE - 10
23.10.2017 12:00:00 17,0 2,0 8 4 E - 10
23.10.2017 11:00:00 14,4 4,9 5 3 ENE 1012,9 10
23.10.2017 10:00:00 12,0 4,0 26 14 NW - 10
23.10.2017 09:00:00 8,0 4,0 15 8 NNW - 10
23.10.2017 08:00:00 6,7 3,4 15 8 NNW 1013,4 10
23.10.2017 07:00:00 6,0 4,0 13 7 NNW - 10
23.10.2017 06:00:00 7,0 5,0 15 8 N - 10
23.10.2017 05:00:00 7,3 5,1 15 8 N 1014,0 8
23.10.2017 04:00:00 7,0 6,0 13 7 N - 5
23.10.2017 03:00:00 7,0 6,0 11 6 NNE - 5
23.10.2017 02:00:00 7,5 6,4 11 6 NNE 1014,8 5
23.10.2017 01:00:00 8,0 6,0 5 3 NNE - 5
23.10.2017 00:00:00 8,0 8,0 5 3 NNE - 5
22.10.2017 23:00:00 8,6 7,8 8 4 NE 1013,1 5
22.10.2017 22:00:00 10,0 9,0 2 1 - - 5
22.10.2017 21:00:00 12,0 12,0 5 3 - - 4,0
22.10.2017 20:00:00 13,0 13,0 8 4 E 1010,3 2,5
22.10.2017 19:00:00 14,0 13,0 5 3 NNE - 1,5
22.10.2017 18:00:00 15,0 14,0 9 5 SSE - 1,5
22.10.2017 17:00:00 15,0 13,5 11 6 SSW 1009,1 3,0
22.10.2017 16:00:00 15,0 13,0 11 6 SSW - 3,0
22.10.2017 15:00:00 15,0 14,0 8 4 SSW - 2,0
22.10.2017 14:00:00 14,1 13,1 8 4 W 1011,1 1,2
22.10.2017 13:00:00 14,0 14,0 11 6 W - 0,9
22.10.2017 12:00:00 14,0 13,0 5 3 W - 0,9
22.10.2017 11:00:00 13,4 13,0 2 1 - 1014,0 0,6
22.10.2017 10:00:00 13,0 13,0 0 0 N - 0,6
22.10.2017 09:00:00 13,0 13,0 2 1 - - 0,8
22.10.2017 08:00:00 13,1 12,6 0 0 N 1014,8 1,2
22.10.2017 07:00:00 13,0 13,0 5 3 N - 1,0
22.10.2017 06:00:00 13,0 13,0 8 4 N - 0,9
22.10.2017 05:00:00 12,9 12,9 5 3 N 1016,1 0,9
22.10.2017 04:00:00 13,0 13,0 8 4 NW - 0,9
22.10.2017 03:00:00 13,0 13,0 5 3 NNE - 0,9
22.10.2017 02:00:00 13,2 13,2 2 1 - 1018,1 0,9
22.10.2017 01:00:00 13,0 13,0 4 2 - - 0,9
22.10.2017 00:00:00 13,0 13,0 5 3 NE - 0,9
21.10.2017 23:00:00 13,4 12,5 5 3 SE 1019,1 1,2
21.10.2017 22:00:00 14,0 12,0 5 3 E - 1,5
21.10.2017 21:00:00 14,0 12,0 5 3 ESE - 1,8
21.10.2017 20:00:00 13,9 11,8 4 2 SSW 1019,7 1,8
21.10.2017 19:00:00 14,0 12,0 5 3 SW - 1,8
21.10.2017 18:00:00 15,0 12,0 8 4 SSW - 2,0
21.10.2017 17:00:00 15,4 12,2 8 4 W 1019,5 2,0
21.10.2017 16:00:00 16,0 12,0 8 4 W - 2,0
21.10.2017 15:00:00 15,0 12,0 8 4 SSW - 2,4
21.10.2017 14:00:00 14,9 11,6 8 4 SW 1020,8 2,4
21.10.2017 13:00:00 14,0 11,0 5 3 S - 2,4
21.10.2017 12:00:00 14,0 11,0 4 2 - - 2,0
21.10.2017 11:00:00 13,5 10,6 4 2 - 1022,0 1,4
21.10.2017 10:00:00 13,0 12,0 4 2 - - 0,8
21.10.2017 09:00:00 13,0 10,0 4 2 - - 2,0
21.10.2017 08:00:00 12,4 10,1 4 2 N 1021,4 1,8
21.10.2017 07:00:00 13,0 10,0 4 2 NNE - 1,6
21.10.2017 06:00:00 13,0 11,0 2 1 - - 1,6
21.10.2017 05:00:00 12,8 11,2 2 1 E 1021,3 1,6
21.10.2017 04:00:00 13,0 11,0 2 1 - - 1,6
21.10.2017 03:00:00 13,0 11,0 4 2 SSW - 1,6
21.10.2017 02:00:00 12,8 11,2 5 3 SSW 1021,9 1,6
21.10.2017 01:00:00 13,0 11,0 0 0 N - 1,6
21.10.2017 00:00:00 13,0 11,0 4 2 - - 1,6
20.10.2017 23:00:00 12,9 11,4 4 2 - 1022,3 1,6
20.10.2017 22:00:00 13,0 12,0 4 2 - - 1,6
20.10.2017 21:00:00 13,0 12,0 5 3 SSW - 1,6
20.10.2017 20:00:00 12,9 11,5 5 3 S 1021,3 1,6
20.10.2017 19:00:00 13,0 11,0 5 3 S - 1,6
20.10.2017 18:00:00 14,0 12,0 9 5 SSW - 2,0
20.10.2017 17:00:00 15,0 11,5 9 5 SSW 1019,8 2,5
20.10.2017 16:00:00 16,0 11,0 5 3 S - 2,5
20.10.2017 15:00:00 16,0 12,0 5 3 W - 2,5
20.10.2017 14:00:00 15,8 11,1 4 2 - 1020,1 2,5
20.10.2017 13:00:00 14,0 11,0 5 3 SW - 2,5
20.10.2017 12:00:00 13,0 11,0 2 1 - - 2,5
20.10.2017 11:00:00 13,0 10,2 8 4 SW 1021,6 2,5
20.10.2017 10:00:00 13,0 10,0 4 2 - - 2,5
20.10.2017 09:00:00 12,0 10,0 5 3 N - 2,5
20.10.2017 08:00:00 11,5 9,6 8 4 NNE 1020,3 2,5
20.10.2017 07:00:00 12,0 10,0 8 4 NNE - 2,0
20.10.2017 06:00:00 12,0 10,0 4 2 - - 2,0
20.10.2017 05:00:00 12,3 10,3 5 3 NNE 1020,2 2,0
20.10.2017 04:00:00 13,0 11,0 4 2 - - 1,5
20.10.2017 03:00:00 13,0 11,0 5 3 N - 1,5
20.10.2017 02:00:00 12,8 12,0 0 0 N 1019,9 1,0
20.10.2017 01:00:00 13,0 12,0 2 1 - - 1,0
20.10.2017 00:00:00 13,0 12,0 4 2 - - 1,2
19.10.2017 23:00:00 12,8 12,1 5 3 S 1020,1 1,2
19.10.2017 22:00:00 12,0 12,0 4 2 - - 1,0
19.10.2017 21:00:00 13,0 11,0 4 2 - - 2,0
19.10.2017 20:00:00 13,0 11,3 5 3 ESE 1019,1 2,0
19.10.2017 19:00:00 14,0 12,0 4 2 - - 2,0
19.10.2017 18:00:00 15,0 12,0 5 3 - - 3,0
19.10.2017 17:00:00 16,1 12,0 4 2 - 1017,8 3,0
19.10.2017 16:00:00 16,0 12,0 5 3 SSW - 2,5
19.10.2017 15:00:00 15,0 12,0 8 4 SSW - 2,0
19.10.2017 14:00:00 15,5 12,5 11 6 SW 1018,8 3,0
19.10.2017 13:00:00 16,0 11,0 8 4 SSW - 3,5
19.10.2017 12:00:00 15,0 12,0 5 3 S - 2,5
19.10.2017 11:00:00 14,9 11,2 2 1 - 1019,9 2,5
19.10.2017 10:00:00 13,0 10,0 2 1 - - 3,5
19.10.2017 09:00:00 11,0 8,0 5 3 NNE - 3,0
19.10.2017 08:00:00 9,5 7,1 2 1 N 1019,3 3,5
19.10.2017 07:00:00 10,0 8,0 5 3 NNE - 4,0
19.10.2017 06:00:00 10,0 8,0 5 3 NE - 4,0
19.10.2017 05:00:00 10,3 7,7 8 4 N 1019,3 4,0
19.10.2017 04:00:00 11,0 8,0 5 3 NNE - 4,0
19.10.2017 03:00:00 - - - - - - -
19.10.2017 02:00:00 11,3 8,7 8 4 N 1019,6 4,0
19.10.2017 01:00:00 12,0 9,0 8 4 NNE - 4,0
19.10.2017 00:00:00 12,0 9,0 8 4 NNE - 4,0
18.10.2017 23:00:00 11,9 8,9 8 4 NNE 1020,0 4,0
18.10.2017 22:00:00 13,0 10,0 11 6 NNE - 4,0
18.10.2017 21:00:00 14,0 10,0 9 5 NNE - 4,0
18.10.2017 20:00:00 14,4 10,6 8 4 NE 1018,8 4,0
18.10.2017 19:00:00 18,0 11,0 8 4 SSW - 4,0
18.10.2017 18:00:00 19,0 11,0 8 4 S - 5
18.10.2017 17:00:00 20,1 10,4 4 2 - 1017,4 5
18.10.2017 16:00:00 20,0 10,0 4 2 - - 5
18.10.2017 15:00:00 20,0 11,0 5 3 - - 5
18.10.2017 14:00:00 20,1 10,8 9 5 WSW 1018,9 5
18.10.2017 13:00:00 19,0 11,0 8 4 S - 5
18.10.2017 12:00:00 18,0 11,0 5 3 S - 5
18.10.2017 11:00:00 17,4 10,8 0 0 N 1020,5 6
18.10.2017 10:00:00 14,0 10,0 4 2 NNE - 7
18.10.2017 09:00:00 11,0 9,0 8 4 NNE - 7

tt = Température de l'air
td = dewpoint
ff = Vitesse du vent
dd = Direction du vent
ppp = reduced air pressure
vv = visibility

stations d'obs. à proximité